Tracking 18785 objects as of 24-July-2017
HD Live streaming from Space Station
objects crossing your sky now
MAYAK may become the brightest orbital object in the night sky!
Where is MAYAK now?
How to spot MAYAK

CZ-4B DEB

Track CZ-4B DEB now!
10-day predictions


NORAD ID: 36290
Int'l Code: 2008-053L
Perigee: 564.5 km
Apogee: 595.3 km
Inclination: 97.6 °
Period: 96.1 minutes
Semi major axis: 6950 km
RCS: 0.0218 m2 (small)
Launch date: October 25, 2008
Source: People's Republic of China (PRC)
Launch site: Taiyaun Space Center, China (TSC)

Note: This is SATELLITE DEBRIS
Your satellite tracking list
Your tracking list is empty





NASA's NSSDC Master Catalog

Two Line Element Set (TLE):
1 36290U 08053L   17204.74469993 -.00000449 +00000-0 -32872-4 0  9996
2 36290 097.5944 192.5362 0022143 053.0536 307.2710 14.98101910241621
Source of the keplerian elements: AFSPC